1514646001.22,6437,6.19,72328.3,-11.27,-38.29,-38.23,0,*59
1514646002.43,6438,6.19,72330.3,-11.31,-38.43,-38.17,0,*5A
1514646003.67,6439,6.19,72324.0,-11.31,-38.17,-38.11,0,*5C
1514646004.88,6440,6.19,72318.8,-11.27,-38.55,-38.35,0,*55
1514646006.1,6441,6.19,72318.0,-11.31,-38.55,-38.35,0,*53
1514646007.36,6442,6.19,72326.8,-11.27,-38.23,-38.11,0,*50
1514646008.59,6443,6.19,72318.3,-11.31,-38.29,-38.17,0,*5A
1514646009.81,6444,6.19,72316.8,-11.27,-37.75,-37.75,0,*57
1514646011.02,6445,6.19,72320.0,-11.31,-37.75,-37.75,0,*51
1514646012.23,6446,6.13,72316.5,-11.27,-37.75,-37.57,0,*55
1514646013.49,6447,6.19,72316.8,-11.25,-37.87,-37.69,0,*56
1514646014.73,6448,6.19,72312.5,-11.25,-37.87,-37.75,0,*54
1514646015.97,6449,6.19,72314.3,-11.25,-37.87,-37.87,0,*58
1514646017.24,6450,6.19,72316.5,-11.25,-37.93,-37.87,0,*55
1514646018.5,6451,6.19,72320.0,-11.23,-38.23,-37.99,0,*59
1514646019.79,6452,6.13,72318.5,-11.25,-38.29,-38.23,0,*58
1514646021.06,6453,6.19,72324.8,-11.23,-38.49,-38.29,0,*53
1514646022.31,6454,6.19,72324.8,-11.25,-38.67,-38.73,0,*51
1514646023.56,6455,6.19,72330.0,-11.23,-38.49,-38.43,0,*59
1514646024.85,6456,6.19,72330.3,-11.25,-38.49,-38.29,0,*50
1514646026.12,6457,6.19,72330.0,-11.25,-38.49,-38.35,0,*5C
1514646027.4,6458,6.19,72330.5,-11.25,-38.23,-38.23,0,*58
1514646028.69,6459,6.19,72308.8,-11.25,-37.93,-37.93,0,*59
1514646029.95,6460,6.19,72314.3,-11.25,-37.87,-37.69,0,*53
1514646031.21,6461,6.19,72320.5,-11.25,-37.87,-37.69,0,*52
1514646032.43,6462,6.19,72324.5,-11.23,-37.87,-37.87,0,*57
1514646033.67,6463,6.19,72322.3,-11.23,-37.87,-37.81,0,*50
1514646034.94,6464,6.19,72318.5,-11.23,-37.63,-37.63,0,*51
1514646036.19,6465,6.19,72324.3,-11.21,-37.63,-37.45,0,*56
1514646037.46,6466,6.19,72320.8,-11.23,-37.81,-37.81,0,*53
1514646038.72,6467,6.19,72326.5,-11.19,-37.63,-37.69,0,*51
1514646039.98,6468,6.13,72324.3,-11.21,-37.51,-37.33,0,*5B
1514646041.21,6469,6.13,72326.3,-11.19,-37.51,-37.33,0,*51
1514646042.44,6470,6.19,72326.0,-11.19,-37.51,-37.33,0,*59
1514646043.71,6471,6.19,72328.5,-11.19,-37.51,-37.63,0,*5D
1514646044.97,6472,6.19,72326.0,-11.19,-37.51,-37.51,0,*5F
1514646046.24,6473,6.13,72322.8,-11.19,-37.69,-37.63,0,*54
1514646047.5,6474,6.19,72328.0,-11.17,-37.63,-37.57,0,*50
1514646048.75,6475,6.19,72326.0,-11.17,-37.63,-37.45,0,*52
1514646050.01,6476,6.19,72330.8,-11.17,-37.63,-37.57,0,*52
1514646051.3,6477,6.13,72328.5,-11.17,-37.39,-37.21,0,*5D
1514646052.56,6478,6.13,72328.5,-11.17,-37.63,-37.57,0,*5C
1514646053.82,6479,6.19,72334.5,-11.15,-37.39,-37.51,0,*56
1514646055.05,6480,6.19,72328.0,-11.17,-37.57,-37.57,0,*5C
1514646056.28,6481,6.19,72328.5,-11.17,-37.45,-37.45,0,*5D
1514646057.48,6482,6.19,72326.5,-11.15,-37.75,-37.57,0,*5C
1514646058.74,6483,6.19,72324.8,-11.13,-37.57,-37.51,0,*5D
1514646060.01,6484,6.19,72330.0,-11.15,-37.81,-37.93,0,*59
1514646061.22,6485,6.19,72330.5,-11.15,-37.75,-37.75,0,*5B
1514646062.42,6486,6.19,72326.0,-11.15,-37.75,-37.75,0,*58
1514646063.66,6487,6.13,72320.8,-11.13,-37.87,-37.75,0,*52
1514646064.92,6488,6.19,72316.8,-11.15,-37.69,-37.69,0,*56
1514646066.14,6489,6.19,72318.5,-11.15,-37.57,-37.69,0,*5A
1514646067.42,6490,6.19,72320.8,-11.13,-37.69,-37.69,0,*59
1514646068.7,6491,6.19,72322.5,-11.13,-37.69,-37.69,0,*58
1514646069.96,6492,6.13,72324.8,-11.11,-37.69,-37.81,0,*5F
1514646071.17,6493,6.13,72320.5,-11.11,-37.75,-37.87,0,*55
1514646072.38,6494,6.13,72324.3,-11.11,-37.75,-37.75,0,*5F
1514646073.62,6495,6.19,72326.5,-11.11,-37.87,-37.81,0,*58
1514646074.83,6496,6.19,72322.8,-11.11,-37.75,-37.87,0,*50
1514646076.09,6497,6.19,72318.5,-11.11,-37.69,-37.81,0,*5A
1514646077.35,6498,6.19,72320.5,-11.11,-37.81,-37.69,0,*55
1514646078.59,6499,6.19,72328.0,-11.11,-37.87,-37.81,0,*54
1514646079.83,6500,6.19,72326.8,-11.11,-37.87,-37.99,0,*5C
1514646081.03,6501,6.13,72326.3,-11.11,-38.05,-38.05,0,*52
1514646082.28,6502,6.19,72326.8,-11.11,-38.11,-38.11,0,*51
1514646083.54,6503,6.19,72322.0,-11.11,-37.99,-37.99,0,*50
1514646084.78,6504,6.19,72318.5,-11.11,-37.99,-37.87,0,*58
1514646086.06,6505,6.19,72322.8,-11.09,-37.99,-37.99,0,*5F
1514646087.3,6506,6.13,72318.5,-11.05,-38.11,-38.05,0,*55
1514646088.58,6507,6.19,72318.5,-11.09,-38.29,-38.23,0,*57
1514646089.81,6508,6.13,72318.8,-11.11,-38.23,-38.05,0,*5F
1514646091.03,6509,6.19,72318.8,-11.11,-38.11,-38.05,0,*5F
1514646092.29,6510,6.13,72320.0,-11.11,-38.29,-38.23,0,*58
1514646093.55,6511,6.19,72322.3,-11.11,-38.23,-38.23,0,*53
1514646094.84,6512,6.19,72320.8,-11.09,-38.29,-38.29,0,*59
1514646096.12,6513,6.13,72312.3,-11.09,-38.29,-38.29,0,*58
1514646097.41,6514,6.13,72318.3,-11.09,-38.29,-38.23,0,*55
1514646098.69,6515,6.13,72314.3,-11.09,-38.29,-38.29,0,*5E
1514646099.94,6516,6.19,72318.5,-11.11,-38.23,-38.11,0,*55
1514646101.23,6517,6.19,72314.5,-11.09,-38.29,-38.23,0,*56
1514646102.51,6518,6.19,72312.5,-11.09,-38.29,-38.23,0,*59
1514646103.77,6519,6.13,72316.5,-11.11,-38.29,-38.29,0,*5B
1514646105.05,6520,6.13,72320.8,-11.09,-38.23,-38.29,0,*52
1514646106.29,6521,6.19,72320.5,-11.05,-38.23,-38.17,0,*52
1514646107.56,6522,6.19,72324.3,-11.09,-38.23,-38.11,0,*5B
1514646108.84,6523,6.13,72322.3,-11.09,-38.23,-38.11,0,*5A
1514646110.11,6524,6.13,72318.0,-11.09,-38.23,-38.11,0,*5D
1514646111.39,6525,6.19,72320.5,-11.09,-38.23,-38.23,0,*5D
1514646112.66,6526,6.13,72318.0,-11.09,-38.23,-38.11,0,*5F
1514646113.92,6527,6.13,72320.0,-11.11,-38.23,-38.23,0,*56
1514646115.19,6528,6.13,72316.0,-11.09,-38.11,-38.11,0,*50
1514646116.45,6529,6.13,72316.8,-11.09,-37.99,-37.87,0,*5E
1514646117.74,6530,6.19,72328.3,-11.09,-37.81,-37.81,0,*59
1514646119.01,6531,6.19,72318.8,-11.05,-37.81,-37.63,0,*58
1514646120.29,6532,6.13,72316.8,-11.09,-37.63,-37.51,0,*5A
1514646121.57,6533,6.13,72316.0,-11.09,-37.51,-37.51,0,*5A
1514646122.8,6534,6.19,72318.3,-11.09,-37.45,-37.27,0,*59
1514646124.01,6535,6.19,72322.3,-11.05,-37.57,-37.75,0,*50
1514646125.25,6536,6.19,72314.3,-11.05,-37.63,-37.75,0,*54
1514646126.46,6537,6.19,72318.5,-11.05,-37.75,-37.75,0,*52
1514646127.7,6538,6.19,72318.5,-11.05,-37.93,-37.75,0,*55
1514646128.96,6539,6.13,72308.5,-11.05,-37.93,-37.81,0,*5F
1514646130.23,6540,6.13,72312.5,-11.03,-37.75,-37.63,0,*53
1514646131.48,6541,6.19,72316.8,-11.01,-37.69,-37.69,0,*57
1514646132.72,6542,6.19,72318.8,-11.01,-37.69,-37.57,0,*59
1514646133.95,6543,6.19,72324.5,-11.03,-37.57,-37.45,0,*54
1514646135.21,6544,6.13,72318.3,-11.03,-37.63,-37.57,0,*57
1514646136.46,6545,6.19,72326.0,-11.01,-37.69,-37.69,0,*53
1514646137.75,6546,6.13,72326.5,-11.03,-38.23,-38.23,0,*52
1514646139.02,6547,6.13,72322.3,-11.03,-38.17,-37.99,0,*5A
1514646140.27,6548,6.13,72328.5,-11.03,-38.23,-38.05,0,*58
1514646141.53,6549,6.13,72324.3,-11.03,-38.05,-37.93,0,*5D
1514646142.76,6550,6.13,72326.3,-11.03,-38.17,-38.05,0,*56
1514646144.0,6551,6.13,72324.8,-11.01,-37.93,-37.75,0,*5E
1514646145.23,6552,6.19,72326.0,-11.01,-37.93,-37.87,0,*50
1514646146.45,6553,6.13,72322.0,-11.01,-37.87,-37.87,0,*54
1514646147.71,6554,6.19,72324.8,-11.01,-38.11,-37.99,0,*5C
1514646149.0,6555,6.19,72328.0,-11.03,-38.23,-37.93,0,*54
1514646150.29,6556,6.13,72330.5,-11.03,-37.99,-37.99,0,*53
1514646151.57,6557,6.13,72322.8,-10.99,-38.11,-37.93,0,*55
1514646152.85,6558,6.19,72330.0,-11.03,-38.23,-37.99,0,*53
1514646154.14,6559,6.13,72324.5,-11.03,-37.99,-37.81,0,*55
1514646155.41,6560,6.13,72326.5,-10.99,-37.99,-37.87,0,*5B
1514646156.67,6561,6.19,72324.3,-11.01,-37.99,-37.93,0,*5F
1514646157.93,6562,6.13,72322.8,-11.01,-37.99,-37.93,0,*5C
1514646159.21,6563,6.19,72330.3,-10.99,-37.99,-37.93,0,*5D
1514646160.44,6564,6.13,72324.3,-10.99,-38.17,-38.17,0,*50
1514646161.7,6565,6.19,72324.0,-10.99,-38.17,-38.29,0,*5C
1514646162.97,6566,6.13,72316.0,-11.01,-38.29,-38.49,0,*54
1514646164.18,6567,6.13,72316.3,-11.01,-38.55,-38.55,0,*53
1514646165.42,6568,6.13,72314.5,-11.03,-38.61,-38.61,0,*5E
1514646166.65,6569,6.19,72318.3,-11.03,-38.73,-38.73,0,*5F
1514646167.86,6570,6.13,72316.0,-11.01,-38.55,-38.55,0,*55
1514646169.12,6571,6.19,72320.3,-11.03,-38.79,-38.73,0,*5C
1514646170.34,6572,6.13,72320.5,-11.03,-38.73,-38.73,0,*55
1514646171.63,6573,6.13,72322.5,-11.03,-38.79,-38.79,0,*54
1514646172.92,6574,6.13,72320.0,-11.03,-38.91,-38.79,0,*55
1514646174.18,6575,6.13,72318.5,-11.03,-38.97,-38.91,0,*54
1514646175.39,6576,6.13,72320.5,-11.05,-38.61,-38.61,0,*57
1514646176.63,6577,6.13,72316.8,-11.05,-38.35,-38.23,0,*51
1514646177.86,6578,6.13,72310.8,-11.09,-38.43,-38.43,0,*55
1514646179.12,6579,6.13,72310.0,-11.05,-38.23,-38.23,0,*58
1514646180.36,6580,6.13,72304.3,-11.05,-38.23,-38.17,0,*59
1514646181.6,6581,6.13,72314.5,-11.05,-38.43,-38.23,0,*59
1514646182.81,6582,6.13,72312.0,-11.05,-38.17,-38.05,0,*5F
1514646184.04,6583,6.13,72306.0,-11.01,-38.11,-37.87,0,*59
1514646185.33,6584,6.13,72308.3,-11.03,-37.99,-37.81,0,*55
1514646186.59,6585,6.13,72310.5,-11.03,-38.23,-38.05,0,*59
1514646187.85,6586,6.13,72308.5,-11.03,-38.23,-38.35,0,*59
1514646189.08,6587,6.13,72308.5,-11.03,-38.35,-38.17,0,*5F
1514646190.34,6588,6.13,72312.0,-11.03,-38.23,-38.17,0,*57
1514646191.6,6589,6.13,72314.8,-11.03,-38.23,-38.17,0,*56
1514646192.83,6590,6.13,72312.0,-11.03,-38.35,-38.35,0,*59
1514646194.09,6591,6.13,72308.3,-11.03,-38.05,-37.93,0,*58
1514646195.3,6592,6.13,72316.3,-11.05,-38.17,-38.05,0,*5E
1514646196.56,6593,6.13,72312.8,-11.03,-38.17,-37.99,0,*53
1514646197.79,6594,6.13,72322.0,-11.03,-38.17,-38.05,0,*5E
1514646199.06,6595,6.13,72310.0,-11.03,-38.05,-37.81,0,*5F
1514646200.32,6596,6.13,72314.8,-11.05,-37.93,-37.81,0,*5A
1514646201.59,6597,6.13,72304.8,-11.03,-37.75,-37.63,0,*59
1514646202.85,6598,6.13,72304.5,-11.03,-37.57,-37.39,0,*59
1514646204.11,6599,6.13,72310.3,-11.03,-37.57,-37.39,0,*58
1514646205.35,6600,6.13,72318.0,-11.01,-37.21,-37.15,0,*56
1514646206.64,6601,6.13,72318.8,-11.03,-37.39,-37.39,0,*52
1514646207.88,6602,6.13,72316.8,-11.01,-37.21,-37.15,0,*54
1514646209.12,6603,6.19,72318.5,-10.97,-37.33,-37.21,0,*5F
1514646210.35,6604,6.13,72318.5,-10.99,-37.33,-37.33,0,*55
1514646211.63,6605,6.13,72314.0,-10.99,-37.51,-37.39,0,*5A
1514646212.86,6606,6.13,72312.5,-10.97,-37.51,-37.33,0,*5D
1514646214.15,6607,6.13,72310.5,-10.99,-37.39,-37.39,0,*56
1514646215.38,6608,6.13,72318.5,-10.97,-37.51,-37.33,0,*53
1514646216.62,6609,6.19,72320.3,-10.97,-37.57,-37.51,0,*50
1514646217.82,6610,6.13,72310.8,-10.93,-37.33,-37.33,0,*5A
1514646219.05,6611,6.13,72314.5,-10.95,-37.33,-37.27,0,*58
1514646220.28,6612,6.13,72312.5,-10.95,-37.45,-37.33,0,*5F
1514646221.51,6613,6.13,72326.5,-10.93,-37.45,-37.39,0,*52
1514646222.77,6614,6.13,72312.8,-10.95,-37.63,-37.45,0,*5C
1514646224.05,6615,6.13,72314.8,-10.95,-37.63,-37.51,0,*58
1514646225.26,6616,6.13,72314.3,-10.93,-37.57,-37.57,0,*5C
1514646226.46,6617,6.13,72310.0,-10.93,-37.45,-37.57,0,*5E
1514646227.73,6618,6.13,72312.8,-10.93,-37.63,-37.63,0,*52
1514646228.95,6619,6.13,72312.3,-10.93,-37.51,-37.45,0,*56
1514646230.15,6620,6.13,72314.8,-10.93,-37.57,-37.45,0,*5A
1514646231.41,6621,6.13,72316.3,-10.91,-37.63,-37.57,0,*5D
1514646232.67,6622,6.13,72316.5,-10.91,-37.63,-37.57,0,*5E
1514646233.93,6623,6.13,72316.0,-10.91,-37.63,-37.57,0,*5F
1514646235.2,6624,6.13,72318.3,-10.91,-37.81,-37.57,0,*54
1514646236.44,6625,6.13,72314.8,-10.91,-37.87,-37.75,0,*53
1514646237.68,6626,6.13,72322.3,-10.89,-37.75,-37.81,0,*5F
1514646238.94,6627,6.13,72318.5,-10.89,-37.63,-37.51,0,*54
1514646240.21,6628,6.13,72316.8,-10.91,-37.81,-37.57,0,*58
1514646241.5,6629,6.13,72316.5,-10.91,-37.99,-37.81,0,*5B
1514646242.76,6630,6.13,72320.3,-10.89,-37.99,-37.81,0,*5A
1514646244.03,6631,6.13,72312.5,-10.91,-37.87,-37.81,0,*5D
1514646245.3,6632,6.13,72322.3,-10.91,-37.81,-37.75,0,*53
1514646246.57,6633,6.13,72322.8,-10.91,-37.99,-37.87,0,*56
1514646247.8,6634,6.13,72312.5,-10.91,-38.05,-37.87,0,*5B
1514646249.07,6635,6.13,72318.0,-10.89,-37.99,-37.99,0,*56
1514646250.3,6636,6.13,72322.0,-10.91,-38.05,-38.05,0,*5C
1514646251.54,6637,6.13,72320.5,-10.91,-38.35,-38.35,0,*5D
1514646252.77,6638,6.13,72322.5,-10.91,-38.05,-38.05,0,*52
1514646254.02,6639,6.13,72316.5,-10.89,-37.93,-37.93,0,*5A
1514646255.25,6640,6.13,72312.3,-10.91,-37.57,-37.45,0,*5E
1514646256.49,6641,6.13,72312.3,-10.91,-37.57,-37.57,0,*5C
1514646257.72,6642,6.13,72322.5,-10.91,-37.57,-37.45,0,*5C
1514646258.95,6643,6.13,72318.5,-10.91,-37.75,-37.57,0,*5E
1514646260.21,6644,6.13,72318.5,-10.91,-37.63,-37.45,0,*5D
1514646261.41,6645,6.13,72324.0,-10.89,-37.57,-37.45,0,*52
1514646262.61,6646,6.13,72320.5,-10.89,-37.57,-37.45,0,*51
1514646263.87,6647,6.13,72324.0,-10.91,-37.63,-37.57,0,*5D
1514646265.14,6648,6.13,72326.0,-10.91,-37.63,-37.57,0,*52
1514646266.42,6649,6.13,72322.0,-10.91,-37.63,-37.39,0,*5B
1514646267.69,6650,6.13,72316.0,-10.89,-37.69,-37.51,0,*5E
1514646268.95,6651,6.13,72324.8,-10.89,-37.51,-37.51,0,*54
1514646270.18,6652,6.13,72316.0,-10.89,-37.69,-37.57,0,*5A
1514646271.44,6653,6.13,72320.8,-10.89,-37.69,-37.69,0,*56
1514646272.7,6654,6.13,72314.8,-10.89,-37.69,-37.51,0,*5A
1514646273.96,6655,6.13,72322.8,-10.89,-37.51,-37.39,0,*5E
1514646275.19,6656,6.13,72320.0,-10.89,-37.51,-37.33,0,*57
1514646276.45,6657,6.13,72320.3,-10.87,-37.39,-37.33,0,*56
1514646277.68,6658,6.13,72322.0,-10.83,-37.45,-37.27,0,*53
1514646278.97,6659,6.13,72324.5,-10.87,-37.39,-37.39,0,*52
1514646280.22,6660,6.13,72320.8,-10.87,-37.69,-37.45,0,*56
1514646281.49,6661,6.13,72316.8,-10.87,-37.57,-37.51,0,*5F
1514646282.72,6662,6.13,72316.3,-10.87,-37.57,-37.57,0,*5A
1514646284.01,6663,6.13,72314.0,-10.83,-37.63,-37.63,0,*5F
1514646285.27,6664,6.13,72320.3,-10.83,-37.51,-37.33,0,*5C
1514646286.53,6665,6.13,72324.3,-10.83,-37.63,-37.45,0,*5D
1514646287.78,6666,6.13,72320.3,-10.83,-37.75,-37.69,0,*57
1514646289.07,6667,6.13,72320.8,-10.83,-37.69,-37.63,0,*51
1514646290.34,6668,6.13,72312.5,-10.83,-37.75,-37.63,0,*53
1514646291.6,6669,6.13,72318.3,-10.87,-37.81,-37.57,0,*5A
1514646292.89,6670,6.13,72320.3,-10.83,-37.69,-37.51,0,*56
1514646294.18,6671,6.13,72320.8,-10.83,-37.69,-37.51,0,*57
1514646295.47,6672,6.13,72316.5,-10.83,-37.69,-37.63,0,*55
1514646296.74,6673,6.13,72318.5,-10.83,-37.75,-37.63,0,*59
1514646297.99,6674,6.13,72318.8,-10.83,-37.75,-37.69,0,*54
1514646299.26,6675,6.13,72316.0,-10.83,-37.93,-37.87,0,*5D
1514646300.54,6676,6.13,72316.0,-10.83,-37.93,-37.93,0,*5B
1514646301.82,6677,6.13,72316.0,-10.83,-38.23,-38.11,0,*5B
1514646303.08,6678,6.13,72322.8,-10.83,-38.05,-37.93,0,*55
1514646304.36,6679,6.13,72326.5,-10.87,-38.11,-37.93,0,*55
1514646305.65,6680,6.13,72322.8,-10.83,-37.93,-37.81,0,*51
1514646306.91,6681,6.13,72328.0,-10.83,-37.93,-37.75,0,*5B
1514646308.19,6682,6.13,72326.3,-10.83,-38.11,-38.11,0,*50
1514646309.45,6683,6.13,72324.5,-10.81,-38.23,-38.11,0,*52
1514646310.74,6684,6.13,72326.0,-10.83,-38.23,-38.29,0,*5C
1514646311.97,6685,6.13,72318.8,-10.83,-38.05,-38.05,0,*57
1514646313.23,6686,6.13,72318.8,-10.87,-38.17,-38.29,0,*5D
1514646314.51,6687,6.13,72312.0,-10.83,-38.11,-38.11,0,*55
1514646315.78,6688,6.13,72326.3,-10.83,-38.43,-38.29,0,*56
1514646317.04,6689,6.13,72326.0,-10.83,-38.43,-38.29,0,*57
1514646318.3,6690,6.13,72322.5,-10.87,-38.35,-38.11,0,*51
1514646319.58,6691,6.13,72322.5,-10.83,-37.93,-37.93,0,*52
1514646320.82,6692,6.13,72322.5,-10.87,-38.17,-38.17,0,*55
1514646322.05,6693,6.13,72330.5,-10.87,-38.17,-38.17,0,*54
1514646323.34,6694,6.13,72332.5,-10.87,-38.11,-37.99,0,*5C
1514646324.59,6695,6.13,72330.5,-10.87,-38.17,-38.11,0,*54
1514646325.85,6696,6.13,72324.8,-10.87,-38.17,-38.11,0,*57
1514646327.13,6697,6.13,72328.0,-10.87,-37.93,-37.69,0,*55
1514646328.37,6698,6.13,72324.0,-10.87,-37.57,-37.57,0,*5F
1514646329.66,6699,6.13,72330.5,-10.87,-37.69,-37.51,0,*55
1514646330.94,6700,6.13,72320.0,-10.87,-37.69,-37.51,0,*54
1514646332.21,6701,6.13,72324.3,-10.87,-37.57,-37.51,0,*58
1514646333.47,6702,6.13,72328.8,-10.87,-37.69,-37.57,0,*50
1514646334.74,6703,6.13,72326.3,-10.83,-37.87,-37.63,0,*52
1514646336.03,6704,6.13,72324.8,-10.83,-37.69,-37.63,0,*55
1514646337.3,6705,6.13,72324.0,-10.83,-37.87,-37.63,0,*54
1514646338.57,6706,6.13,72324.0,-10.87,-37.81,-37.57,0,*52
1514646339.86,6707,6.13,72324.5,-10.87,-37.69,-37.39,0,*5D
1514646341.12,6708,6.13,72330.5,-10.83,-37.75,-37.63,0,*54
1514646342.38,6709,6.13,72330.3,-10.83,-37.69,-37.75,0,*5F
1514646343.65,6710,6.13,72324.0,-10.81,-37.69,-37.51,0,*53
1514646344.91,6711,6.13,72322.3,-10.81,-37.69,-37.51,0,*52
1514646346.18,6712,6.13,72320.0,-10.81,-37.69,-37.51,0,*51
1514646347.44,6713,6.13,72320.0,-10.81,-37.69,-37.51,0,*50
1514646348.71,6714,6.13,72330.3,-10.81,-37.63,-37.63,0,*5C
1514646349.97,6715,6.13,72328.8,-10.81,-37.69,-37.51,0,*56
1514646351.2,6716,6.13,72330.0,-10.81,-37.63,-37.45,0,*5A
1514646352.43,6717,6.13,72330.5,-10.79,-37.45,-37.27,0,*5C
1514646353.69,6718,6.13,72330.8,-10.79,-37.45,-37.21,0,*55
1514646354.95,6719,6.13,72324.3,-10.79,-37.63,-37.45,0,*52
1514646356.2,6720,6.13,72324.0,-10.79,-37.63,-37.45,0,*58
1514646357.46,6721,6.13,72328.5,-10.79,-37.45,-37.39,0,*56
1514646358.69,6722,6.13,72326.5,-10.79,-37.45,-37.27,0,*5A
1514646359.92,6723,6.13,72332.0,-10.77,-37.45,-37.39,0,*5A
1514646361.18,6724,6.13,72324.5,-10.77,-37.63,-37.39,0,*59
1514646362.41,6725,6.13,72328.8,-10.77,-37.45,-37.39,0,*5C
1514646363.67,6726,6.13,72332.8,-10.77,-37.39,-37.09,0,*57
1514646364.9,6727,6.13,72334.5,-10.75,-37.57,-37.33,0,*55
1514646366.13,6728,6.13,72332.0,-10.77,-37.45,-37.39,0,*51
1514646367.33,6729,6.13,72326.0,-10.77,-37.45,-37.27,0,*5F
1514646368.53,6730,6.13,72330.0,-10.77,-37.45,-37.27,0,*57
1514646369.76,6731,6.13,72332.3,-10.77,-37.57,-37.39,0,*5A
1514646371.02,6732,6.13,72328.5,-10.75,-37.51,-37.33,0,*57
1514646372.25,6733,6.13,72326.8,-10.77,-37.57,-37.39,0,*58
1514646373.54,6734,6.13,72328.0,-10.75,-37.39,-37.21,0,*5C
1514646374.8,6735,6.13,72332.0,-10.75,-37.51,-37.33,0,*50
1514646376.09,6736,6.13,72326.5,-10.75,-37.63,-37.51,0,*56
1514646377.38,6737,6.13,72328.5,-10.75,-37.51,-37.39,0,*58
1514646378.64,6738,6.13,72330.5,-10.73,-37.39,-37.39,0,*5F
1514646379.9,6739,6.13,72332.3,-10.75,-37.39,-37.33,0,*52
1514646381.16,6740,6.13,72324.8,-10.71,-37.33,-37.39,0,*58
1514646382.43,6741,6.13,72328.3,-10.73,-37.39,-37.39,0,*51
1514646383.69,6742,6.13,72334.0,-10.73,-37.51,-37.51,0,*52
1514646384.92,6743,6.13,72328.3,-10.71,-37.33,-37.33,0,*51
1514646386.19,6744,6.13,72330.0,-10.73,-37.51,-37.51,0,*54
1514646387.41,6745,6.13,72330.3,-10.71,-37.57,-37.45,0,*54
1514646388.68,6746,6.13,72330.8,-10.73,-37.51,-37.51,0,*56
1514646389.89,6747,6.13,72336.5,-10.73,-37.75,-37.75,0,*57
1514646391.15,6748,6.13,72336.8,-10.71,-37.57,-37.51,0,*5C
1514646392.41,6749,6.13,72342.8,-10.71,-37.75,-37.51,0,*5D
1514646393.64,6750,6.13,72336.0,-10.71,-37.75,-37.75,0,*53
1514646394.92,6751,6.13,72334.8,-10.71,-37.93,-37.93,0,*52
1514646396.2,6752,6.13,72338.3,-10.71,-38.11,-38.11,0,*51
1514646397.46,6753,6.13,72340.0,-10.71,-38.05,-37.93,0,*50
1514646398.74,6754,6.13,72334.0,-10.71,-38.11,-38.11,0,*57
1514646400.0,6755,6.13,72334.8,-10.71,-38.29,-38.35,0,*5B
1514646401.22,6756,6.13,72332.5,-10.73,-38.55,-38.35,0,*51
1514646402.45,6757,6.13,72330.3,-10.73,-38.67,-38.55,0,*57
1514646403.71,6758,6.13,72328.8,-10.71,-38.43,-38.29,0,*57
1514646404.96,6759,6.13,72330.8,-10.73,-38.49,-38.35,0,*53
1514646406.17,6760,6.13,72328.0,-10.73,-38.35,-38.35,0,*52
1514646407.39,6761,6.13,72326.0,-10.73,-38.55,-38.35,0,*55
1514646408.63,6762,6.13,72326.8,-10.73,-38.55,-38.29,0,*5B
1514646409.9,6763,6.13,72326.5,-10.75,-38.55,-38.49,0,*5A
1514646411.16,6764,6.13,72322.3,-10.75,-38.55,-38.49,0,*5D
1514646412.45,6765,6.13,72322.0,-10.75,-38.49,-38.49,0,*51
1514646413.71,6766,6.13,72324.5,-10.75,-38.67,-38.55,0,*53
1514646414.92,6767,6.13,72322.8,-10.77,-38.61,-38.61,0,*51
1514646416.13,6768,6.13,72320.5,-10.77,-38.61,-38.55,0,*59
1514646417.34,6769,6.13,72320.5,-10.77,-38.73,-38.55,0,*5B
1514646418.55,6770,6.13,72322.5,-10.77,-38.55,-38.55,0,*57
1514646419.76,6771,6.13,72330.8,-10.77,-38.55,-38.43,0,*51
1514646420.96,6772,6.13,72322.5,-10.77,-38.55,-38.43,0,*52
1514646422.23,6773,6.13,72320.3,-10.75,-38.49,-38.35,0,*5D
1514646423.47,6774,6.13,72314.3,-10.79,-38.55,-38.43,0,*5A
1514646424.7,6775,6.06,72312.3,-10.79,-38.35,-38.43,0,*5D
1514646425.91,6776,6.13,72316.3,-10.81,-38.17,-38.17,0,*58
1514646427.21,6777,6.06,72316.3,-10.79,-37.81,-37.81,0,*5E
1514646428.45,6778,6.13,72322.8,-10.79,-37.87,-37.87,0,*51
1514646429.72,6779,6.13,72320.0,-10.79,-37.87,-37.99,0,*5F
1514646430.99,6780,6.06,72318.0,-10.79,-37.87,-37.81,0,*50
1514646432.22,6781,6.13,72318.5,-10.77,-37.87,-37.69,0,*59
1514646433.51,6782,6.06,72316.0,-10.79,-37.81,-37.69,0,*52
1514646434.8,6783,6.06,72314.8,-10.79,-37.69,-37.63,0,*5F
1514646436.05,6784,6.13,72322.8,-10.77,-37.69,-37.69,0,*5C
1514646437.27,6785,6.13,72322.8,-10.77,-37.87,-37.87,0,*5D
1514646438.56,6786,6.13,72316.3,-10.75,-37.81,-37.93,0,*5F
1514646439.82,6787,6.13,72318.0,-10.77,-37.99,-37.99,0,*5F
1514646441.05,6788,6.13,72328.0,-10.77,-38.05,-37.99,0,*5A
1514646442.31,6789,6.13,72322.5,-10.77,-37.99,-37.99,0,*51
1514646443.54,6790,6.13,72322.8,-10.77,-37.87,-37.69,0,*59
1514646444.83,6791,6.13,72326.5,-10.75,-37.93,-37.81,0,*59
1514646446.1,6792,6.13,72324.3,-10.77,-37.81,-37.81,0,*5B
1514646447.34,6793,6.13,72334.0,-10.77,-37.81,-37.87,0,*5C
1514646448.55,6794,6.06,72324.8,-10.77,-37.87,-37.87,0,*5D
1514646449.77,6795,6.06,72312.8,-10.77,-37.87,-37.87,0,*5C
1514646451.01,6796,6.13,72320.5,-10.77,-37.87,-37.81,0,*59
1514646452.28,6797,6.13,72316.0,-10.75,-37.81,-37.75,0,*57
1514646453.52,6798,6.06,72316.5,-10.77,-37.87,-37.63,0,*5B
1514646454.79,6799,6.13,72322.8,-10.75,-37.81,-37.57,0,*59
1514646456.05,6800,6.06,72322.3,-10.75,-37.63,-37.75,0,*5A
1514646457.34,6801,6.06,72312.3,-10.75,-37.51,-37.51,0,*5C
1514646458.6,6802,6.13,72306.3,-10.75,-37.57,-37.39,0,*57
1514646459.86,6803,6.13,72316.5,-10.75,-37.63,-37.57,0,*59
1514646461.12,6804,6.06,72308.5,-10.75,-37.57,-37.39,0,*51
1514646462.36,6805,6.13,72318.5,-10.73,-37.57,-37.39,0,*56
1514646463.63,6806,6.06,72312.0,-10.73,-37.63,-37.51,0,*5C
1514646464.84,6807,6.06,72326.3,-10.73,-37.75,-37.75,0,*5C
1514646466.08,6808,6.06,72316.8,-10.73,-37.63,-37.57,0,*54
1514646467.33,6809,6.13,72316.8,-10.71,-37.51,-37.33,0,*54
1514646468.6,6810,6.13,72320.0,-10.73,-37.51,-37.51,0,*5A
1514646469.84,6811,6.06,72322.0,-10.73,-37.63,-37.57,0,*5C
1514646471.12,6812,6.06,72320.0,-10.71,-37.51,-37.51,0,*5A
1514646472.38,6813,6.06,72316.3,-10.71,-37.69,-37.57,0,*56
1514646473.59,6814,6.06,72310.8,-10.73,-37.57,-37.57,0,*5E
1514646474.82,6815,6.13,72308.3,-10.71,-37.57,-37.45,0,*5E
1514646476.06,6816,6.06,72312.0,-10.73,-37.75,-37.63,0,*5B
1514646477.35,6817,6.13,72312.8,-10.71,-37.69,-37.51,0,*54
1514646478.58,6818,6.13,72314.3,-10.69,-37.51,-37.33,0,*5D
1514646479.81,6819,6.06,72308.5,-10.69,-37.51,-37.33,0,*5C
1514646481.04,6820,6.06,72312.5,-10.69,-37.39,-37.27,0,*5D
1514646482.25,6821,6.13,72322.5,-10.69,-37.45,-37.15,0,*56
1514646483.46,6822,6.06,72320.3,-10.69,-37.57,-37.33,0,*52
1514646484.72,6823,6.06,72322.8,-10.69,-37.69,-37.51,0,*5A
1514646485.93,6824,6.06,72320.8,-10.69,-37.57,-37.33,0,*54
1514646487.22,6825,6.06,72320.0,-10.67,-37.51,-37.39,0,*57
1514646488.51,6826,6.06,72314.0,-10.67,-37.63,-37.51,0,*5B
1514646489.76,6827,6.13,72316.8,-10.67,-37.51,-37.45,0,*5E
1514646491.05,6828,6.13,72316.5,-10.67,-37.63,-37.39,0,*5B
1514646492.31,6829,6.06,72312.8,-10.67,-37.63,-37.45,0,*51
1514646493.59,6830,6.06,72314.3,-10.67,-37.69,-37.51,0,*56
1514646494.86,6831,6.13,72322.8,-10.69,-37.51,-37.51,0,*52
1514646496.09,6832,6.06,72314.5,-10.69,-37.69,-37.75,0,*5C
1514646497.33,6833,6.13,72322.5,-10.69,-37.69,-37.87,0,*50
1514646498.56,6834,6.13,72324.5,-10.69,-36.91,-37.33,0,*5E
1514646499.86,6835,6.13,72320.0,-10.67,-37.63,-37.63,0,*58
1514646501.06,6836,6.06,72316.5,-10.69,-37.45,-37.27,0,*51
1514646502.32,6837,6.06,72320.3,-10.71,-37.09,-37.15,0,*50
1514646503.58,6838,6.13,72320.8,-10.71,-38.05,-38.23,0,*56
1514646504.81,6839,6.06,72308.3,-10.71,-38.05,-38.05,0,*53
1514646506.08,6840,6.13,72310.8,-10.71,-37.87,-37.51,0,*56
1514646507.32,6841,6.13,72318.3,-10.73,-37.93,-37.75,0,*56
1514646508.57,6842,6.13,72324.8,-10.71,-37.75,-37.69,0,*52
1514646509.82,6843,6.06,72310.8,-10.71,-38.05,-37.93,0,*5E